St Mary's, Wyke: Burials 1945-1982

The original Burial records can be found at WYAS Burial Book 1 ref BDP101/3/1. Burial Book 2 ref BDP101/3/2. The book with neither page numbers nor a reference number, we have called Book 3 ref BDP101/3/3. Burial Book 4 ref BDP101/3/4.
 
Ref Book Page No Date Name Surname B B Address Age B B Notes Grave No G B Notes
4509 4 2 9 1945 01 17 Emma Wood 22 Towngate 63y   NG0918B  
4510 4 2 10 1945 01 19 Ernest Haigh 2 Brunswick Grove Bradford 69y   NG0816A 2 Runswick Grove, Frederick
4511 4 2 11 1945 01 20 Dan Smith 14 Scholes Lane Scholes 80y      
4512 4 2 12 1945 01 22 Edith Womersley 2 Leonard St 74y      
4513 4 2 13 1945 01 24 Mary Ann Newby 85 Green Lane 77y   NG0829A  
4514 4 2 14 1945 01 27 Nancy Brown 18 Griffe Drive 15y   NG0194  
4515 4 2 15 1945 02 05 Hannah Jane Dent East Croft 72y   NG0857  
4516 4 2 16 1945 02 07 Elizabeth Wheatcroft 247 Wyke Lane 44y   NG0763  
4517 4 3 17 1945 02 07 Sarah Ann Young 524 Huddersfield Road 75y   NG0069 Susan Ann
4518 4 3 18 1945 02 07 Amelia Clegg 24 Westcroft 79y   NG0472  
4519 4 3 19 1945 02 15 Enoch Tatlow 37 Watford Avenue Norwood Green 60y   NG0824 Tetlow
4520 4 3 20 1945 02 23 Willie Terry 702 Huddersfield Road 63y   NG0919B  
4521 4 3 21 1945 02 24 Catherine Harrison Garden Field 81y   NG0698 63 Temperence Field
4522 4 3 22 1945 03 01 Sarah Smith 614 Huddersfield Road 75y   NG0035B  
4523 4 3 23 1945 03 13 Louisa Varley Holly Bank, Green Lane 83y   WR12A  
4524 4 3 24 1945 03 17 Teresa Rosaline Roberts 1 Tabbs Lane Scholes 78y   NG0267  
4525 4 4 25 1945 04 09 Eleanor Wilson 41 Temperance Field 73y   NG0077  
4526 4 4 26 1945 04 14 Ernest Holmes 21 Shirley Avenue 78y   NG0808  
4527 4 4 27 1945 04 18 Dick Brear 25 Garden Field 76y   NG0271  
4528 4 4 28 1945 05 04 Lucy Barraclough Manor House Lower Wyke 75y   NG0798  
4529 4 4 29 1945 05 05 Isaac Bishop 1 Abel Street New - market 59y   NG0132A  
4530 4 4 30 1945 05 08 Jack Wilson 59 Mayo Avenue Bankfoot 32y   NG0077  
4531 4 4 31 1945 05 08 Vincent Oates 170 New Cross Street Bowling 57y   NG0756C  
4532 4 4 32 1945 05 15 Charles Robert Elson 13 Balfour Terrace 76y   NG0715 Paley Road
4533 4 5 33 1945 06 09 Tom Western The Culvert Lower Wyke 70y   NG0573 2 The Culvert
4534 4 5 34 1945 06 14 William Wilkinson The General Infirmary Leeds 83y   NG0438  
4535 4 5 35 1945 06 21 Sarah Ellen Healey St Luke's Hospital Bradford 75y   NG0120A 32 Garden Field
4536 4 5 36 1945 07 05 Winifred Presgrave 68 Dawnay Road Bradford 56y   NG0918  
4537 4 5 37 1945 07 17 Robert Oldfield 575 Huddersfield Road 81y   NG0807  
4538 4 5 38 1945 07 21 Morris Wood 591 Huddersfield Road 69y   NG0545  
4539 4 5 39 1945 08 15 Colin William Dawson 10 Tor Avenue 11m      
4540 4 5 40 1945 08 25 Clare Hobson 1st Street Wesley Place Low Moor 64y   NG0733 Clara
4541 4 6 41 1945 09 15 Fred Collins 43 Garden Field 81y   NG0779  
4542 4 6 42 1945 09 26 Mary Ellen Bower 7 Griffe Head Road Wyke Bradford 62y   NG0920B  
4543 4 6 43 1945 09 28 Ernest Pickles 10 Bowling Green Fold 18y   NG0542  
4544 4 6 44 1945 10 11 Rebecca Eddison 123 Walden Drive 80y   NG0773  
4545 4 6 45 1945 10 13 Mary Ann Thornton 30 Watmouth St Gt. Horton 81y      
4546 4 6 46 1945 10 16 Alice Wilkinson 718 Woodview Terrace Huddersfield Rd 63y   NG0600  
4547 4 6 47 1945 11 24 Sarah Ellen Wilkinson 3 S. Mark's Place Low Moor 61y   NG0440  
4548 4 6 48 1945 12 11 Ellen Edmunds 2 Bentley St 82y   NG0604 8y
4549 4 7 49 1945 12 18 Jane Elizabeth Wilkinson 583 Huddersfield Road 89y   NG0729B 593 Huddersfield Road
4550 4 7 50 1945 12 21 Edith Annie Peech 1 Barraclough Square 46y   NG0919 Peach
4551 4 7 51 1945 12 24 Howard Greenwood 27 Clare Road 1d   NG0136  
4552 4 7 52 1945 12 24 William Broomhead 3 Strathmore Drive, Baildon 81y   NG0266A  
4553 4 7 53 1946 01 01 Lewis Greenwood 118 Towngate 56y   NG0643  
4554 4 7 54 1946 01 03 Harriet Briggs 106 Concrete Cottages, Brampton, Bierlow 82y   A59 5 Elizabeth Street
4555 4 7 55 1946 01 19 Ann Eliza Craven 211 Wyke Lane 84y   G05  
4556 4 7 56 1946 01 25 Richard Henry Healey 8 Henley Road Bradford West Bowling 73y   NG0386  
4557 4 8 57 1946 01 30 George Chapman 44 Stenhouse Rd Bradford 66y   NG0160 44 Skinhouse Street, Bradford
4558 4 8 58 1946 02 07 Elizabeth Alice Lister High Royd, Menston 63y   NG0099 69 Storr Hill
4559 4 8 59 1946 02 12 Isabella Sellers Pomona House, Middleton, Ilkley 75y   NG0584  
4560 4 8 60 1946 02 28 Fred Boyes 9 Methuen Oval 68y   NG0278A  
4561 4 8 61 1946 02 28 Harry Webster 12 Griffe Head Road 80y   NG0008A  
4562 4 8 62 1946 03 05 Alice Briggs 269 Rooley Lane 81y   B47  
4563 4 8 63 1946 03 20 Emma Whitehead 74 Wyke Lane 64y   NG0829B 175 Wyke Lane
4564 4 8 64 1946 03 22 Mary Ann Jennings S. Luke's Hospital, Bradford 66y   NG0343 12 Carr House Lane
4565 4 9 65 1946 03 26 Mary Holland 674 Huddersfield Rd 74y   B19  
4566 4 9 66 1946 03 27 Joseph Richardson 4 Hanson Fold 61y   NG0246A  
4567 4 9 67 1946 03 28 Mary Ann Worsnop 9 West St, Bailiff Bridge 80y      
4568 4 9 68 1946 04 05 Sarah Lily Birks Firs, Copmanthorpe, York 58y   NG0188  
4569 4 9 69 1946 04 25 John White 85 Towngate 24y   NG0933  
4570 4 9 70 1946 05 01 Kathleen Wainwright The Royal Infirmary, Bradford 21y   NG0776 1 Brick Row
4571 4 9 71 1946 05 16 Ellen Garside 8 Elizabeth St 67y   NG0752  
4572 4 9 72 1946 05 21 Tom Mallinson 19 Temperance Field 78y   NG0005  
4573 4 10 73 1946 05 25 Abraham Jones 24 Worthinghead Road 73y   NG0360  
4574 4 10 74 1946 07 17 Herbert Victor Haner 22 Halifax Road Brighouse 81y   NG0288 Hamer
4575 4 10 75 1946 07 27 Beatrice Annie Barkham 51 Lillands Lane Rastrick 50y   NG0758  
4576 4 10 76 1946 08 13 Harry Farrar 28 York Road Bournemouth 86y   NG0595  
4577 4 10 77 1946 08 13 Minnie Kellett 64 Garden Field 79y   E15  
4578 4 10 78 1946 08 21 Ada Goodwill 18 Clare Road 51y   NG0086A  
4579 4 10 79 1946 08 24 John Cornwell 427 Huddersfield Road Wyke 53y   NG0323B  
4580 4 10 80 1946 09 07 Rita Scully Bank House, School St, Low Moor 7h twins    
4581 4 10 80 1946 09 07 Valerie Scully Bank House, School St, Low Moor 1d twins    
4582 4 11 81 1946 09 12 Clara Wilkinson 5 Albert Terrace Wyke Lane 81y   NG0599  
4583 4 11 82 1946 09 26 Edward Pamment 21 Garden Field 57y   NG2106  
4584 4 11 83 1946 10 07 Harry Whitaker 16 New Row Wyke Common 70y   NG0404  
4585 4 11 84 1946 11 05 Dorothy Graham Wyke Crescent 14y   NG0920 6 Wyke Crescent
4586 4 11 85 1946 11 14 Miranda Jarvis 9 Rushton Road Bradford 73y   NG0911B Thornbury
4587 4 11 86 1946 11 29 Sam Bottomley 89 Holme St, Bradford 80y   A22  
4588 4 11 87 1946 12 20 Samuel Briggs 12 Portland St Low Moor 79y   E08  
4589 4 11 88 1946 12 21 John Holland 674 Church View 85y   B19 674 Huddersfield Rd
4590 4 12 89 1946 12 23 Ethel Rose Walker 72 Southfield Lane Great Horton 54y   NG0780  
4591 4 12 90 1947 01 01 Tom Dawson 18 Mayfield Terrace Wyke 74y   NG0921  
4592 4 12 91 1947 01 06 Emily Shaw Farrar 28 York Road Bournemouth 87y   NG0595  
4593 4 12 92 1947 01 20 Walter Brown 4 Binks Fold 74y   NG0691  
4594 4 12 93 1947 01 27 Fred Lightowler 174 Woodside Rd 71y   NG0603  
4595 4 12 94 1947 01 30 Harry Knight 14 West Croft 34y   NG0180a  
4596 4 12 95 1947 02 10 Harry Broomhead 2 Waterloo Fold 61y   NG0322B  
4597 4 12 96 1947 02 11 Barry Pitts 11 Barraclough Square 3m   NG0778 4m
4598 4 13 97 1947 02 11 Emma Jane Marsden 36 Ramsey Street, W. Bowling 73y   NG0457  
4599 4 13 98 1947 02 20 Alexander Smith 13 West Grove St, Stanningley 81y   G03  
4600 4 13 99 1947 03 10 Sarah Ann Craven 7 Chapel Fold 62y   NG0932 7 Chapel Fold, Wyke Lane
4601 4 13 100 1947 03 10 Mary Elizabeth Dalby 8 Hardy Terrace Wibsey 80y   NG0797  
4602 4 13 101 1947 03 17 Harry Lightowler 52 Garden Field 69y   NG0380  
4603 4 13 102 1947 03 19 Mary Elizabeth Chapman 3 Royd Street Little Horton 69y   E27  
4604 4 13 103 1947 03 20 Henry Nixon 9 Laverack Field 51y   NG0910B  
4605 4 13 104 1947 03 21 Norah Hanson 291 Bradford Rd, Riddlesden 63y   NG0182  
4606 4 14 105 1947 03 26 Harold Armitage 14 Barmby Street 54y   NG0764  
4607 4 14 106 1947 04 10 George Lee 2 Carr House Grove 59y   NG0648  
4608 4 14 107 1947 04 10 Mary Dawson 20 Towngate 82y   NG0921B  
4609 4 14 108 1947 04 21 Benjamin Brook 17 Worthinghead Road 75y   NG0922B  
4610 4 14 109 1947 04 22 Barbara Forrest 1 Farfield Terrace, Buttershaw 1w      
4611 4 14 110 1947 05 09 Maud Mary Dickinson High Royds, Menston 65y   NG0748 25 Griffe Drive
4612 4 14 111 1947 05 24 Leonard Holmes 21 Shirley Avenue 55y   NG0808  
4613 4 14 112 1947 06 13 Susannah Brook 53 Garden Field 82y   NG0184  
4614 4 15 113 1947 06 14 Sarah Jane Hodgson 25 Butcher St 76y   NG0543 Susan Jane
4615 4 15 114 1947 06 17 Samuel Hicks 25 Providence St. Scholes 68y      
4616 4 15 115 1947 06 21 Harry Dawson 182 Leeds & Whitehall Road 46y   NG0321  
4617 4 15 116 1947 06 25 Sarah Jane Clark 16 Whitehall Road 66y   NG0020A  
4618 4 15 117 1947 07 12 Joseph Anderson 18 Wyke Crescent Wyke 74y   NG1121  
4619 4 15 118 1947 07 30 Herbert Rhodes 23 Mayfield View 62y   NG0923B  
4620 4 15 119 1947 08 14 Elizabeth Rayner 102 West Avenue, Lightcliffe 82y   NG0122  
4621 4 15 120 1947 09 13 Raymond Waddington Duke William Inn, Clark Bridge, Halifax 50y   NG0032A  
4622 4 16 121 1947 11 05 Jack Farnell 10 West Croft 36y   NG0842  
4623 4 16 122 1947 11 13 Frances Illand 5 Shirley Avenue 68y   NG1136 62y
4624 4 16 123 1947 12 05 Martha Elizabeth Booth 368 Huddersfield Road 78y   NG1151  
4625 4 16 124 1947 12 18 Sarah Wright 54 Towngate 83y   NG0710  
4626 4 16 125 1947 12 23 James Sharp Shirley Manor 84y   SPBG2  
4627 4 16 126 1947 12 29 Sarah Jane Ramsdale 11 Neal Street Bradford 84y   NG0058  
4628 4 16 127 1948 01 22 Annie Chambers 20 Rooley Avenue 78y   NG1166 9 Shirley Place 79y
4629 4 16 128 1948 01 22 Joseph Crawshaw 92 Towngate 76y   NG0819  
4630 4 17 129 1948 01 24 Leonard Fairburns Middle Ox Heyes, Norwood Green 37y   NG1165 Fairbairn
4631 4 17 130 1948 01 31 Arthur James Penzer 55A Towngate 30y   NG1150  
4632 4 17 131 1948 02 02 William Hainsworth 682 Huddersfield Road 65y   NG0499  
4633 4 17 132 1948 02 16 Randolf Wilkinson 5 Albert Terrace Wyke Lane 81y   NG0599  
4634 4 17 133 1948 03 01 William Robinson 73 Cleckheaton Road, Low Moor 58y   NG0036B  
4635 4 17 134 1948 03 18 Olivia Bateman Knowle House, Liversedge 82y   NG0561 8 Edward St Hightown Liversedge
4636 4 17 135 1948 03 20 Joseph Wilkinson 11 Elizabeth St, Wyke 89y   NG0137  
4637 4 17 136 1948 03 23 Edna Gwendoline Herbert Green Lane 31y   NG1164 85 Green Lane
4638 4 18 137 1948 03 27 James Petty 4 Hirst Fold 66y   NG0365  
4639 4 18 138 1948 03 30 Clara Sugden 3 Hirst Fold 75y   NG0006  
4640 4 18 139 1948 04 05 Loretta Morton 1 New Row Wyke 72y   NG0804 Rosetta Morton, 20 New Row, Wyke Common
4641 4 18 140 1948 04 05 William Wall McFarlane 19 Blankney Av, Bailiff Bridge 72y   NG1149 64y
4642 4 18 141 1948 04 09 Annie Elizabeth Tordoff 34 Marsh St Bradford 79y   NG0235  
4643 4 18 142 1948 04 12 Charles Norbran Kellett 15 Ashfield Terrace 66y   NG0608A  
4644 4 18 143 1948 04 17 Elizabeth Ann Swithenbank 55 Whitehall Road 83y   NG0912B  
4645 4 18 144 1948 04 19 Alice Platts 73 Wilson Road 77y      
4646 4 19 145 1948 04 26 Mary Hannah Bentley 40 Griffe Drive 85y   NG0659  
4647 4 19 146 1948 04 26 William Cornwell 3 Carr Row 29y   NG0185  
4648 4 19 147 1948 05 04 Mary Ann Fearnley 13 Ashton Terrace, Lidget Green 80y   NG0486 Ashton Avenue
4649 4 19 148 1948 06 02 Joseph Hill 28 Wyke Lane, Bailiff Bridge 53y   NG1163  
4650 4 19 149 1948 06 04 Emily Kellett 5 Perseverance St 70y   F05  
4651 4 19 150 1948 07 23 Emmalena Bowron 3 Wilson Road 85y   NG0213  
4652 4 19 151 1948 07 30 Elizabeth Stevenson 112 Cotewall Rd, Bradford 74y   NG0522  
4653 4 19 152 1948 08 04 Uriah Ingle 245 Wyke Lane 80y   NG0541  
4654 4 20 153 1948 08 13 Amanda Sugden 120 Albert Terrace 87y   NG0015  
4655 4 20 154 1948 08 17 Nancy Isabel Barraclough Manor House Lower Wyke 39y   NG0798  
4656 4 20 155 1948 08 28 Bates Helliwell 5 Crampion Street, Halifax 56y   NG0753  
4657 4 20 156 1948 09 02 Sarah Elizabeth Lightowlers Royden, Hind St 76y   NG0728B 7 Hind Street
4658 4 20 157 1948 09 13 Henry Jenkinson 9 Shirley Crescent 44y   NG1148  
4659 4 20 158 1948 09 21 Ada Hirst 52 Larkfield Rd, Rawdon 78y   NG0174  
4660 4 20 159 1948 09 22 Elizabeth Wilkinson 8 Brick Row Wyke 79y   NG0513  
4661 4 20 160 1948 09 28 Grace Hannah Rothery 1021 Huddersfield Rd, Odsal, B'ford 78y   NG0806 1021 Manchester Road, Bradford
4662 4 21 161 1948 10 04 John William Illingworth 579 Huddersfield Road 74y   NG0354 79y
4663 4 21 162 1948 10 14 Walter Morton Holly Bank 65y   NG0604A  
4664 4 21 163 1948 10 21 Joseph Stevens Tofts Cottage 8h      
4665 4 21 164 1948 10 29 Joseph Butterfield 17 Laverack Field 76y   NG0917B  
4666 4 21 165 1948 10 30 Annie Deacon 66 Cotewall Rd, Manchester Rd 68y   NG0072B  
4667 4 21 166 1948 11 05 Willie Briggs Queens Road, Norwood Green 71y   NG0754  
4668 4 21 167 1948 11 29 Florrie Bartram 40 Ivy Terrace, Low Moor 44y   NG0775  
4669 4 21 168 1948 12 01 Walter Smith Mellisay Whitehall Rd, Wyke 83y   NG0660A  
4670 4 22 169 1948 12 16 Caroline Dearden 4, Masefield Avenue, Bradford 75y   NG0357  
4671 4 22 170 1948 12 24 Emma Holdsworth Royden, Hind St 81y   NG0728B  
4672 4 22 171 1948 12 23 Mary Alice Wright 40 Holroyd Hill, Wibsey 55y      
4673 4 22 172 1949 01 01 Ernest Andrew Elwin The Vicarage, Wyke 71y   NG0594 MA(Priest) Vicar of St Mary's Church Wyke 1932 to 1948
4674 4 22 173 1949 01 12 Frank Haley Healey 136 High Fernley Rd, Wyke 69y   NG0721AB  
4675 4 22 174 1949 01 12 Jane Hodgson Stott 3 Portland St, Elland 79y   B04  
4676 4 22 175 1949 01 26 Maureen Bond 5 Fourth St, Wesley Place, Low Moor 9w   NG0682 9 months
4677 4 22 176 1949 02 19 Barbara Joan Crabtree 2 Hanson Place, Wyke 1mth   NG1162  
4678 4 23 177 1949 02 22 William Green 10 Fountain Terrace, Wyke 81y   NG0247  
4679 4 23 178 1949 03 03 Annie Wood 75 Wilson Rd, Wyke 70y   NG0922  
4680 4 23 179 1949 03 08 George Walters 49 Clare Rd, Wyke 72y   NG0491  
4681 4 23 180 1949 03 11 Ann Firth 10 Brook St, Woodlands, Oakenshaw 71y   NG0923  
4682 4 23 181 1949 03 12 Clara Hitchen 27 Wigan St, Bradford 78y   NG0367  
4683 4 23 182 1949 03 14 Florence Evelyn Akeroyd St Luke's Hospital Bradford 67y   NG0323  
4684 4 23 183 1949 03 14 Harry Wilkinson Knowle Lane, Wyke Common, Wyke 69y   NG1147  
4685 4 23 184 1949 03 14 Ada Sharp 29 Gardenfield, Wyke 90y   NG0116  
4686 4 24 185 1949 03 18 Harold Mallinson 40 Shirley Avenue, Wyke 48y   NG1161  
4687 4 24 186 1949 03 18 Louisa Turner 4 Masefield Avenue, Howarth Road, Bradford 77y   NG0072  
4688 4 24 187 1949 04 11 Alice Womersley 90 Wyke Lane Wyke 58y   NG0079  
4689 4 24 188 1949 04 18 Terence Fenton 10 Carr Road, Wyke 2m   NG1146  
4690 4 24 189 1949 04 20 Willie Hopkinson 31 Garden Field, Wyke 42y   NG0733A  
4691 4 24 190 1949 05 25 Edgar Smith 66 Garden Field Wyke 60y   NG0915  
4692 4 24 191 1949 06 20 Anice Day 12 Athlone Terrace, Leeds 12 80y Armley Pudsey NG0486A  
4693 4 24 192 1949 07 12 Edwin Hopkinson 34 Common Rd, Low Moor 69y   NG0056A  
4694 4 25 193 1949 06 25 William White 85, Towngate, Wyke 66y   NG0933  
4695 4 25 194 1949 07 21 John Locker St Luke's Hospital Bradford 50mins      
4696 4 25 195 1949 08 03 Sam Garside 51 Blackburn Rd, Birstall 63y   NG0631  
4697 4 25 196 1949 08 08 Joyce Metcalfe 603 Bradford Rd, Bailiffe Bridge 15y   B16  
4698 4 25 197 1949 09 05 Florence May Anderson 18 Wyke Crescent 56y   NG1121  
4699 4 25 198 1949 10 17 Jack Harry Watson Stow Pastures, Stow, Lincoln 37y   NG0917 Pasture Farm, Stow, Lincoln
4700 4 25 199 1949 10 17 Esther Briggs 2, Chapel Fold, Wyke Lane 63y   NG0332  
4701 4 25 200 1949 10 21 Ida Gandy 246 Jesmond Terrace, Wyke Lane 54y   NG1160  
4702 4 26 201 1949 11 04 John Dennis Clark 16 Whitehall Avenue, Wyke 69y   NG0020A  
4703 4 26 202 1949 11 06 Albert Johnson 16 Temperance Field, Wyke 47y   NG0551 22 Temperance Field
4704 4 26 203 1949 11 07 John Smith 14 Barmby St, Wyke 50y   NG0764  
4705 4 26 204 1949 11 09 James Stead 9 Cooperative Buildings, Wyke 74y   NG0638  
4706 4 26 205 1949 11 09 Hannah Mary Collins 718 Woodview Terrace Huddersfield Rd, Wyke 75y   NG0812  
4707 4 26 206 1949 12 16 Willie Sugden 16 Laverack Field, Wyke 71y   NG0916  
4708 4 26 207 1950 01 11 Winifred Simpson 85 Undercliffe Rd, Eccleshill 24y   NG0608  
4709 4 26 208 1950 02 09 Irene Greenwood Southlands, 159 Hightown New Road, Liversedge, Cleckheaton 39y   NG0613  
4710 4 27 209 1950 02 21 Elizabeth Sharp 14 Norbury Rd, Ravenscliffe, Eccleshill 67y   B41  
4711 4 27 210 1950 03 07 James Henry Crossland 63 Blackstone Avenue, Wyke 60y   NG1159  
4712 4 27 211 1950 03 10 Marjorie D Ryan 8 The Crescent, Wyke 13y   NG0744A Marjorie Day
4713 4 27 212 1950 05 10 Eleanor Nolan The Lodge, Blankney Grange, Lower Wyke 29y   NG0744  
4714 4 27 213 1950 05 13 John Rhys Williams 87 Towngate, Wyke 72y   NG1145  
4715 4 27 214 1950 05 19 Herbert Sykes 50 Whitehall Avenue, Wyke 43y   NG0654  
4716 4 27 215 1950 06 05 William Thomas Clegg 3 Silver St, Wyke 82y   NG0347  
4717 4 27 216 1950 06 10 Vera Bonas 10 Griffe Drive 29y   NG0914  
4718 4 28 217 1950 07 08 John Shannon 19 Shirley Avenue, Wyke 62y   NG0343  
4719 4 28 218 1950 07 19 Rose Helena Martin 114 Cross Lane,Great Horton 88y   NG0780 72 Southfield Lane, Horton
4720 4 28 219 1950 07 28 Annie Garbutt 8a Chew Bldgs, Wyke 71y   NG0834 4 Worthinghead Road 72y
4721 4 28 220 1950 08 01 Walter Crawshaw 595 Huddersfield Rd, Wyke 79y   NG0791  
4722 4 28 221 1950 08 04 Albert Edward Birkby Storr Hill House, Wyke 79y Cremated Remains    
4723 4 28 222 1950 09 29 Ann Elizabeth Riley 14 Rawson St, Wyke 78y   NG0670  
4724 4 28 223 1950 10 07 Willie Dawson 20 Towngate, Wyke 85y   NG0921B  
4725 4 28 224 1950 10 09 Tom Kellett 50 Whitehall Avenue, Wyke 67y   NG0645  
4726 4 29 225 1950 10 16 John Woolley Priestley 14 Carr Road, Wyke 74y   NG0186 John Wooler
4727 4 29 226 1950 10 24 Hannah Atkinson 1 Hanson Place Wyke 74y   NG0913  
4728 4 29 227 1950 11 23 Emma Horrocks 14 Worthinghead Rd, Wyke 88y   NG0722B  
4729 4 29 228 1950 12 12 Harriet Malone The Park, Rooley Lane 74y   NG0854 25 Briggs Ave Wibsey
4730 4 29 229 1950 12 28 Amy Walls 16 Pearson Row, Worthinghead Rd, Wyke 50y   NG1144  
4731 4 29 230 1951 01 19 Elizabeth Howell Farfield, Grove Avenue, Ilkley 95y Disposal of ashes Jan 19 1951    
4732 4 29 231 1951 01 22 Elizabeth Womersley 96 Wyke Lane 80y   NG0079  
4733 4 29 232 1951 01 23 Caroline Sowden 2 Bridge End, Rastrick 82y   NG0615B  
4734 4 30 233 1951 01 23 Clara Asquith 4 Temperance Field 77y   NG0221  
4735 4 30 234 1951 01 24 Annie Fairburn 29 Mayville Avenue, Leeds 90y   E35  
4736 4 30 235 1951 02 05 Wilfred Womersley 2 Leonard St, Wyke 83y      
4737 4 30 236 1951 02 08 Mary Ann Dunn 21 Temperance Field, Wyke 70y   NG0768A  
4738 4 30 237 1951 02 17 Lucy Lightowlers 41 Temperance Field, Wyke 75y   NG0380 41 Garden Field
4739 4 30 238 1951 02 20 James William Webster 31 Shirley Avenue, Wyke 67y   NG0931  
4740 4 30 239 1951 03 06 Abraham Clegg The Park, Rooley Lane 86y   NG0629 61 Birch Lane Bowling
4741 4 30 240 1951 03 09 John Hanson 41 Perseverance St, Low Moor 75y   NG0011 23 Perseverance Street, New Road Side
4742 4 31 241 1951 03 20 Sarah Palfreman South View, Clayton 94y   WR02 12, Lower Wyke Green
4743 4 31 242 1951 03 20 Frank Rayner 2 Wroe Place, Wyke 62y   NG0268  
4744 4 31 243 1951 03 24 Emma Brear 2 Bath Place, Woodside, Halifax 97y   NG0282  
4745 4 31 244 1951 04 16 Hilda Ingle 229 Wyke Lane 55y   NG0912 56y
4746 4 31 245 1951 04 09 Hannah Whitehead Whitehall Road 79y   NG0830A 3 Whitehall Road
4747 4 31 246 1951 04 17 Hannah Stead 9 Cooperative Buildings, Wyke 66y   NG0638  
4748 4 31 247 1951 04 18 Emma Shillito Cow Close Farm , Wyke 81y   NG0070B  
4749 4 31 248 1951 05 11 Ada Mallinson 5 Wilkinson Fold 65y      
4750 4 32 249 1951 05 16 Charles Copland 40 Haycliffe Road, Great Horton, Bradford 73y   NG0500  
4751 4 32 250 1951 05 18 Ernest Spriggs 4 Acomb Terrace, Wyke 71y   NG0728  
4752 4 32 251 1951 07 19 Benjamin Marsh 6 Ashfield Terrace, Wyke 73y   NG0930  
4753 4 32 252 1951 07 20 Ada Jones 26 Mayfield Place, Wyke 71y   NG0769A  
4754 4 32 253 1951 07 28 Hannah Maria Sugden 7 Brick Row, Wyke 70y   NG1143  
4755 4 32 254 1951 08 06 Clara Bowron 14 Shirley Mt, Gomersal 86y   NG0213 3 Wilson Road
4756 4 32 255 1951 08 14 John Middleton 1011 Coley View, Wyke 74y   B29  
4757 4 32 256 1951 08 15 Violet Ann Rhodes 29 Temperance Field, Wyke 64y   NG0012A  
4758 4 33 257 1951 08 21 Frank Lee 16 Brick Row, Wyke 45y      
4759 4 33 258 1951 08 31 Temp Smith 128 High Fernley Rd, Wyke 73y   NG0721  
4760 4 33 259 1951 10 09 Louisa Smith 76 Bolingbroke St, Bradford 82y   NG0701  
4761 4 33 260 1951 10 13 Herbert Barker 13 Worthinghead Rd, Wyke 68y   NG0934  
4762 4 33 261 1951 10 17 Annie Booth 368 Huddersfield Road, Wyke 74y   NG1151  
4763 4 33 262 1951 10 17 Ethel May Smith 72 Wyke Lane, Wyke 33y   NG0935  
4764 4 33 263 1951 11 06 Alice Greenwood 2 Elizabeth St, Wyke 74y   NG0618B  
4765 4 33 264 1951 11 07 Lucy Wood St Luke Terrace, Cleckheaton 71y   NG0545  
4766 4 34 265 1951 11 17 Fred Whitaker 676 Huddersfield Road, Wyke 86y   B24  
4767 4 34 266 1951 11 21 Ada Florence Holdsworth The Park, Rooley Lane, Bradford 75y   NG0580A 14 Hare Park Lane, Roberttown
4768 4 34 267 1951 11 23 Eliza Lillie Bell 714 Huddersfield Rd, Wyke 66y   NG0455  
4769 4 34 268 1951 12 27 Annie Abbott 23 Carr House Lane, Wyke 58y   NG0924B  
4770 4 34 269 1951 12 27 Albert Rosconie 8 Griffe Head Rd, Wyke 31y   NG0936  
4771 4 34 270 1952 01 07 Richard Pinder 26 Glenfield Terrace, Odsal 75y      
4772 4 34 271 1952 01 07 Clara Bennett 55 Whitehall Rd, Wyke 76y   NG0912B  
4773 4 34 272 1952 01 08 Gladys Mabel Kellett 657 Huddersfield Rd, Wyke 57y   NG1142  
4774 4 35 273 1952 01 16 Edwin Whiteley 108 Drub Lane, Gomersal 80y   NG0395  
4775 4 35 274 1952 01 18 Fred Brook Towngate 68y   A58 108 Towngate
4776 4 35 275 1952 01 21 Ann Smith 14 Garden Field 78y   NG0405  
4777 4 35 276 1952 02 16 Doris Greenwood 7 Wyke Crescent 24y   NG1158  
4778 4 35 277 1952 03 01 Sam Wilkinson 10 Laverack Field 91y   NG0026/7  
4779 4 35 278 1952 03 04 Elizabeth Crewe 158 Thornhill Rd, Rastrick, Brighouse 76y   NG1157  
4780 4 35 279 1952 03 25 George Wm Clapham 11 Lower Green Avenue, Scholes 93y   NG0072AB  
4781 4 35 280 1952 04 09 Sarah Jane Barker 13 Worthinghead Rd, Wyke 71y   NG0934  
4782 4 36 281 1952 04 10 Ernest Sharp Duke of York's Home 47y      
4783 4 36 282 1952 05 05 Arthur Birkby 172 Woodside Road, Wyke 74y   NG0124  
4784 4 36 283 1952 05 10 Martha Ann Broomhead 4 Laverack Place, Wyke 76y   NG0266A  
4785 4 36 284 1952 05 20 William Smith 23 Westcroft, Wyke 83y   NG0666  
4786 4 36 285 1952 05 22 Wilfrid Schorah 27 Stead Rd, Toftshaw 65y   NG0613 Milford
4787 4 36 286 1952 06 02 Philip Booth 9 Holdsworth St, Wyke 72y   NG0841  
4788 4 36 287 1952 06 09 Frank Garside 14 Whitehall Avenue, Wyke 55y   NG0830B  
4789 4 36 288 1952 06 25 Hannah Stubbs Lower Fold Farm, Wyke 74y   NG0924  
4790 4 37 289 1952 07 17 Leah Lockwood 2 Water St, Wyke 76y Interment of ashes    
4791 4 37 290 1952 07 19 Annie Cornwell 427 Huddersfield Rd, Wyke 60y   NG0323B  
4792 4 37 291 1952 07 22 Emma Jackson 23 Ashville Grove, Leeds 6 76y   NG0435  
4793 4 37 292 1952 07 26 Annie Wilkinson 9 School Fold, Low Moor 79y      
4794 4 37 293 1952 08 02 Ann Ellen Illingworth 579 Huddersfield Rd, Wyke 78y   NG0354  
4795 4 37 294 1952 08 09 Sarah Jane Petty 3 Taylor Fold, Wyke 71y   NG0365  
4796 4 37 295 1952 08 15 Tom Holland 4 Wensleydale Rd, Thornbury 82y   NG0008  
4797 4 37 296 1952 08 20 Denton Collins 6 Mayfield Terrace, Wyke 86y      
4798 4 38 297 1952 08 29 Sarah Elizabeth Akeroyd 10 Parkfield Rd, Bradford 81y   NG0728A  
4799 4 38 298 1952 09 06 John Robert Goodwill Scarborough Hospital 57y   NG0086A  
4800 4 38 299 1952 09 09 Alice Maud Bullock 10 Wyke Crescent, Wyke 74y   NG0488  
4801 4 38 300 1952 09 11 Annie Holdsworth 94 Carr House Gate, Wyke 80y   NG0138  
4802 4 38 301 1952 09 12 Lilian Sharp 27 West Croft, Wyke 68y   NG0317  
4803 4 38 302 1952 09 20 Samuel Riley 14 Rawson St, Wyke 82y   NG0670  
4804 4 38 303 1952 09 23 Bertha Mary Johnson Wesley Place, Low Moor 69y   NG0475  
4805 4 38 304 1952 10 08 Ruth Ann Hester St Luke's Hospital 82y   B50  
4806 4 39 305 1952 10 22 Eliza Mallinson 4 Wainman St, Wyke 72y   NG0745A  
4807 4 39 306 1952 10 31 Arthur Barraclough The Park, Rooley Lane, Bradford 80y   D58  
4808 4 39 307 1952 11 04 Emily Sanderson 32 Worthingead Rd, Wyke 73y   NG0362A  
4809 4 39 308 1952 11 05 William Winterburn 3 Victor Terrace, Heaton, Bradford 71y   NG0747  
4810 4 39 309 1952 11 26 Frederick Donnelly 28 Shirley Avenue, Wyke 66y   NG0318  
4811 4 39 310 1952 12 03 John William Wilkinson 3 St Mark's Place, Low Moor 71y   NG0440 John Edward William
4812 4 39 311 1952 12 10 Alice Ellis 633 Huddersfield Rd, Wyke 61y   NG0313  
4813 4 39 312 1952 12 30 Joseph Bentley Brick Row, Wyke 84y      
4814 4 40 313 1953 01 06 Annie Stott 23 Cronmies Lane, Rastrick 81y   NG0526  
4815 4 40 314 1953 01 10 Tom Wilkinson 20 St Mary's Avenue, Wyke 75y      
4816 4 40 315 1953 02 02 Alice Bond 512 Huddersfield Rd, Wyke 53y   NG0575  
4817 4 40 316 1953 02 17 Elizabeth Palmer 1 Willow Drive, Bradford 90y   NG0448  
4818 4 40 317 1953 03 02 Hubert Illingworth 2 Carr House Lane, Wyke 48y   NG0837  
4819 4 40 318 1953 03 14 Albert Gornall 104 St Enoch's Rd, Wibsey 69y   NG0829  
4820 4 40 319 1953 03 19 Christopher Peacock Stubbs Lower Fold Farm, Wyke 72y   NG0924  
4821 4 40 320 1953 04 21 Fred Speight 25 Deneside Terrace, Bankfoot 80y   NG0212  
4822 4 41 321 1953 05 16 Fred Fawcett 4 Barmby St, Wilson Rd 60y   NG2105  
4823 4 41 322 1953 05 28 Charles Edward Holdsworth "Ingleroyd" Whitehall Rd, Wyke 84y   NG0596  
4824 4 41 323 1953 05 28 Annie Louisa Garside 2 Holdsworth Buildings, New Road Side 78y   NG0820  
4825 4 41 324 1953 06 30 Charles Ian Briggs 15 Griffe Drive 3y      
4826 4 41 325 1953 07 02 Harriet Ann Thornton 282 Whitehall Rd 87y   NG0804A  
4827 4 41 326 1953 07 04 Elizabeth Ann Hardy 486 Bowling Old Lane 77y   NG0071B  
4828 4 41 327 1953 07 11 Fred Nicholl Mallinson Blackpool 51y   NG0175  
4829 4 41 328 1953 08 06 Violetta Jones 49 Woodlands St, Bradford 77y   NG0392  
4830 4 42 329 1953 08 15 Annie Tommis Calverley Hospital 62y   NG0483  
4831 4 42 330 1953 08 20 Florence Candelatt St Luke's Hospital 77y   NG0314  
4832 4 42 331 1953 09 01 Lillie Collins 35 Shirley Avenue 59y   NG0016A  
4833 4 42 332 1953 09 08 Marion Rothery 27 Clare Road 22y   NG0662  
4834 4 42 333 1953 09 11 Samuel Healey 1 Clare Rd 77y   NG0928  
4835 4 42 334 1953 10 19 Sarah Mallinson 8 Halifax Row 73y   NG0746  
4836 4 42 335 1953 10 23 Fred Asquith Green Mount, Norwood Green 63y   NG0937  
4837 4 42 336 1953 10 24 Ada Griffiths St Catherine's House, Bradford 61y   A57  
4838 4 43 337 1953 10 27 Hilda Easby 490 Bowling Old Lane, Bradford 58y   NG0938  
4839 4 43 338 1953 10 28 Tom Kellett 5 Wainman Square, Wyke 77y   NG0350  
4840 4 43 339 1953 11 16 Priscilla Dawson 4 Tor Avenue, Wyke 84y   NG0921  
4841 4 43 340 1953 12 23 Annie Ashforth 2 Worthinghead Road, Wyke 70y   NG0744C  
4842 4 43 341 1953 12 27 Fanny Crabtree 24 Colliergate, Low Moor 84y   NG0384B  
4843 4 43 342 1954 01 18 Hannah Holroyd 7 Whitehall Avenue, Wyke 87y   NG0718  
4844 4 43 343 1954 01 21 Florence Cooper 28 Whitehall Avenue, Wyke 64y   NG0309  
4845 4 43 344 1954 01 27 Edna Turner 4 Wroe Terrace, Wyke 76y   NG0072  
4846 4 44 345 1954 02 02 Annie Haigh North Spring House, Kirkburton, nr Huddersfield 72y   NG0310  
4847 4 44 346 1954 03 09 Pauline Mary Garside 24 St Mary's Crescent, Wyke 1m   B45 Child's grave
4848 4 44 347 1954 03 10 Benjamin Herbert Lockwood 14 Barraclough Square, Wyke 67y   NG0778  
4849 4 44 348 1954 03 20 Annie Edith Jennings 3 Smith St, Wyke 74y      
4850 4 44 349 1954 03 26 Robert Hoggan 1 Halifax Row 81y   NG0451  
4851 4 44 350 1954 03 31 Ernest Gledhill 290 Leeds & Whitehall Rd 75y   NG0069B  
4852 4 44 351 1954 04 24 Clement Sucksmith Halifax General Hospital 68y   NG0503 Norwood Green
4853 4 44 352 1954 05 03 Nancy Hannah Gregson 2 Water St 68y   E37  
4854 4 45 353 1954 06 05 Maggie Bartle West Bowling 76y   NG0737  
4855 4 45 354 1954 06 11 James Jarvis 9 Shirley Avenue 60y   NG0911B  
4856 4 45 355 1954 06 22 John Sugden Smith 10 Melville St, Ryde, Isle of Wight 86y   NG0732  
4857 4 45 356 1954 07 14 Ellen Ramsden 614 Huddersfield Rd, Wyke 82y   NG0035B  
4858 4 45 357 1954 09 27 Margaret Patchett Brear 25 Garden Field, Wyke 84y   NG2110  
4859 4 45 358 1954 10 05 Elsie Gornall 104 St Enoch's Rd, Wibsey 57y   NG0829  
4860 4 45 359 1954 10 19 Harry Holdsworth Lynwood, Sal Royd Road, Low Moor 86y   NG0138  
4861 4 45 360 1954 10 21 Mary Hannah Lightowler 157 Wyke Lane. Wyke 71y   NG0650 St Luke's Hospital
4862 4 46 361 1954 11 09 Mary Elizabeth Smith 98 Waterbarn Street, Burnley 76y   NG0007 290b Colne Road, Burnley
4863 4 46 362 1954 11 11 John William Barraclough 69 Raymond St, Bradford 86y   D57  
4864 4 46 363 1954 12 02 Joseph Mallinson 50 High St, Low Moor 76y   NG0578  
4865 4 46 364 1954 12 08 Arthur Holdsworth 15 Garden Field, Wyke 71y   NG0939  
4866 4 46 365 1954 12 14 Florence Elizabeth Armitage The Park, Rooley Lane, Bradford 79y   NG0588A  
4867 4 46 366 1954 12 21 Obedience Mallinson 14 Griffe Head Rd, Wyke 79y   NG0846  
4868 4 46 367 1954 12 30 Ethel Bentley 346 Huddersfield Rd, Wyke 77y   NG0505  
4869 4 46 368 1955 01 05 Samuel George Bensley 42 Shirley Avenue, Wyke 82y   NG1141  
4870 4 47 369 1955 01 21 John Barker 13 Mayfield View, Wyke 74y   NG0727  
4871 4 47 370 1955 01 26 Harry Brown 8 Cameron Avenue, Wyke 61y   NG0845  
4872 4 47 371 1955 02 01 Mary Sharp Wyke Banks, Huddersfield Rd, Wyke 89y   NG0112  
4873 4 47 372 1955 02 15 William Thomas Derham 7 Binks Fold, Wyke 74y      
4874 4 47 373 1955 02 17 James Willie Terry 10 Perseverance St, Wyke 71y   NG0305  
4875 4 47 374 1955 03 08 Albert Frederick Illingworth 54 Griffe Head Rd, Wyke 57y   NG0911  
4876 4 47 375 1955 03 08 Smith Nayler Lane Ends Inn, Norwood Green 80y   NG0868A  
4877 4 47 376 1955 03 30 Fred Hanson 193 Whitehall Rd, Wyke 86y   NG0658 CC Pe?le
4878 4 48 377 1955 04 02 Albert Kellett 4 Edmund St, Shipley 60y   NG0867A  
4879 4 48 378 1955 06 03 Hannah Maria Hobson St Luke's Hospital 74y   NG0617  
4880 4 48 379 1955 05 26 Annie Mason 10 Brick Row 64y   NG0751  
4881 4 48 380 1955 06 08 Walter Woodhead 4 Ivy Bank 68y   NG0437A  
4882 4 48 381 1955 06 08 William Hinchcliffe 54 Garden Field 72y   NG0520  
4883 4 48 382 1955 06 15 Ann Elizabeth Mallinson 50 High St, Low Moor 78y   NG0578  
4884 4 48 383 1955 07 11 Henry Thomas Smith 3 Griffe Head Crescent, Wyke 66y   NG0869A  
4885 4 48 384 1955 07 13 Vernis Haigh St Luke's Hospital 21y   NG0774 Towngate Wyke
4886 4 49 385 1955 07 29 Minnie Holmes "Killain", Rookes Lane, Norwood Green 56y   NG0927  
4887 4 49 386 1955 08 15 Frank Hepworth 422 Bowling Old Lane, Bradford 73y   NG0789  
4888 4 49 387 1955 09 06 Florence May Harvey Bradford Royal Infirmary 43y   NG0910  
4889 4 49 388 1955 09 12 Robert Gummersal 9 Griffe Drive 78y   NG0378  
4890 4 49 389 1955 09 17 Albert Wilkinson St Luke's Hospital 78y   NG0056  
4891 4 49 390 1955 10 01 Asa Parkinson 18 Laverack Field 68y   NG0716  
4892 4 49 391 1955 10 11 Fred Wilkinson 3 Highfield Avenue, Bailiff Bridge 81y   NG0048  
4893 4 49 392 1955 10 15 Maud Ormondroyd Thornton View, Clayton, Bradford 80y   C45  
4894 4 50 393 1955 10 31 Cyril Barraclough "Highfield", Huddersfield Rd, Wyke 69y   NG0926  
4895 4 50 394 1955 11 15 Fred Shackleton 29 Clare Rd, Wyke 66y   G02  
4896 4 50 395 1955 11 25 Harold Hardy Boyes St Luke's Hospital 65y   NG0120A  
4897 4 50 396 1955 12 03 Doris Lee 28 Griffe Drive, Wyke 40y   NG0625  
4898 4 50 397 1955 12 27 Kate Marion Greenough 15 Fairfield Rd, Shipley 88y   NG0063  
4899 4 50 398 1956 01 05 John Bentley 4 Woodside Rd, Low Moor 82y   NG0301  
4900 4 50 399 1956 01 05 Kate Frankland 25 Griffe Drive, Wyke 71y   NG1156 Stoney Ridge Hospital died 1 Jan 1956
4901 4 50 400 1956 01 11 Lily Binks 16 Halifax Row, Wyke 78y   NG0052A  
4902 4 51 401 1956 01 12 Elizabeth Ann Wilkinson 385 Leeds & Whitehall Rd, Wyke 78y   NG0056  
4903 4 51 402 1956 02 04 Irvine Smith 16 Towngate, Wyke, Bradford 66y   NG0725  
4904 4 51 403 1956 02 07 Olive Christie 4 Bell St, Wyke 71y   NG0236  
4905 4 51 404 1956 02 08 Jack Bailey 1 Summer Hall Ing, Wyke 43y   NG0510  
4906 4 51 405 1956 02 11 Frank Bartle 9 Halifax Row, Wyke 54y   NG0157  
4907 4 51 406 1956 02 29 James Godfrey Albert Sellers Pomona Farm, Middleton, Ilkley 88y   NG0584  
4908 4 51 407 1956 03 01 Sutcliffe Greenwood 23 The Acre, Delf Hill 79y   NG0618B  
4909 4 51 408 1956 03 06 Iris Beck 35 Belloe St, Bradford 8m   NG0160  
4910 4 52 409 1956 03 20 Edwin Johnson 9 St Mark's Terrace, Low Moor 78y   NG0475  
4911 4 52 410 1956 03 21   Edmunds Staincliffe General Hospital   Stillborn child of Raymond John Edmunds and Marjorie Edmunds    
4912 4 52 411 1956 03 28 Hannah Hanson 302 Blacker Road, Huddersfield 79y   NG0011 202 Blacker Road, Huddersfield
4913 4 52 412 1956 04 05 James Henry Firth 652 Bradford Road, Oakenshaw 79y   NG0923  
4914 4 52 413 1956 04 07 Annie Marsh 6 Ashfield Terr, Wyke 77y   NG0930  
4915 4 52 414 1956 04 11 Charles Hizzett Town Gate, Wyke 70y   NG0623  
4916 4 52 415 1956 04 28 Florence Mary Maud Wilkinson 2 Brick Row, Wyke 76y   NG0758  
4917 4 52 416 1956 05 04 Emma Greenough 100 Harwood Road, Rishton 79y   D45  
4918 4 53 417 1956 05 30 Rhoda Parkinson 8 Griffe Road, Wyke 75y   NG0445A  
4919 4 53 418 1956 06 13 Jane Yates 18 Griffe Rd, Wyke 82y      
4920 4 53 419 1956 06 22 Rebecca Walker 63 Smith Ave, Odsal 81y   NG0368A  
4921 4 53 420 1956 08 27 Mary Emma Mallinson 3 Mayfield, Norwood Green 84y   NG0175  
4922 4 53 421 1956 09 13 Clara Brear Ovenden Hall, Halifax 92y   NG0282 93y
4923 4 53 422 1956 10 15 Effie Wilkinson 6 Mayfield Terrace, Wyke 71y   NG0600  
4924 4 53 423 1956 10 16 Emily Thurwell 1 Wilson Rd, Wyke 81y   NG0249  
4925 4 53 424 1956 11 14 Ernest Bailey 166 Woodside Rd, Wyke 68y   NG0514  
4926 4 54 425 1956 11 28 Frank Burnett 102 Storr Hill, Wyke 70y   NG0297  
4927 4 54 426 1957 01 03 Maud Augusta Topham 24 First St, Low Moor 72y   NG0697A  
4928 4 54 427 1956 12 24   Bagshaw 42 Whitehall Avenue, Wyke   Stillborn child of Daniel & Gwendoline Bagshaw    
4929 4 54 428 1957 01 03   Robinson General Hospital, Halifax   Stillborn child of Gordon Stuart & Winifred Elsie Robinson    
4930 4 54 429 1957 01 19 George Herbert Stott 15 Southlands Ave, Rawdon 84y      
4931 4 54 430 1957 01 28 Zilpha Bartle 10 Halifax Row, Wyke 76y   NG0450A  
4932 4 54 431 1957 01 15 Ramoth Bartle 6 Carr Rd, Wyke 83y   NG0281  
4933 4 54 432 1957 02 22 Clara Maud Fairburn 17 Griffe Head Rd, Wyke 77y   NG0740  
4934 4 55 433 1957 02 27 William Percy Taylor 7 Westcroft, Wyke 87y   NG0231  
4935 4 55 434 1957 03 11 Walter Thomas Howden 791 Huddersfield Rd, Wyke 64y   NG1092  
4936 4 55 435 1957 03 12 Alice Green 10 Fountain Terr, Wyke 89y   NG0247  
4937 4 55 436 1957 04 06 Sarah Elizabeth Watson 183 Wilson Road, Wyke 77y   NG0064  
4938 4 55 437 1957 04 24 George Drabes Woodhead 2 Kirkley Ave, Wyke 65y   NG0869  
4939 4 55 438 1957 04 26 Kenneth James Jarvis 9 Shirley Avenue, Wyke 24y   NG1093 14 Stanningley Road Halifax
4940 4 55 439 1957 04 29 Ann Kellett 1024 Manchester Rd, Bankfoot 73y   NG0464  
4941 4 55 440 1957 05 04 Edith Maud Hattersley 49 Roundhill St, Horton, Bradford 59y   NG0235  
4942 4 56 441 1957 06 15 Elaine Harker 10 Tofts Ave, Wyke 15y   NG0932  
4943 4 56 442 1957 06 17 Emma Illingworth 2 Main St, Wyke 81y   NG0780A  
4944 4 56 443 1957 06 19 May Elizabeth Verity 14 Salisbury Rd, Downend, Bristol 68y Ashes    
4945 4 56 444 1957 06 26 Jemima Jackson 20 Back Clough, Northowram 89y   NG0821  
4946 4 56 445 1957 08 09 Violet Bishop 73 Hayfield Rd, Salford, Manchester 74y   NG0620B  
4947 4 56 446 1957 08 22 Sarah Elizabeth Rhodes 3 Hanson Place, Wyke 70y   NG0706 Hanson Fold
4948 4 56 447 1957 09 26 Norman Wheatley Morrell 22 Hallfield Rd, Bradford 63y   NG0641  
4949 4 56 448 1957 10 05 Charlotte Emsley 25 Wrigley Ave, Bierley, Bradford 87y   NG0742  
4950 4 57 449 1957 10 16 Elizabeth Hepworth 2 Mayfield, Norwood Green 71y   NG0673B Double grave with 673A
4951 4 57 450 1957 10 18 Elsie Scully 6 Bank House, School St, Low Moor 36y   NG0668  
4952 4 57 451 1957 10 18 Walter Ormonroyd 117 Airedale Rd, Sheffield 6 84y   C45  
4953 4 57 452 1957 10 25 Frederick Turner The Park, Rooley Lane, Bradford 79y   NG0072  
4954 4 57 453 1957 11 06 Frank Barraclough 10 Wyke Crescent, Wyke 82y   NG0546  
4955 4 57 454 1957 11 18 Willie Crabtree 8 Worthing St 69y   NG0471  
4956 4 57 455 1957 12 02 Maurice Newby 9 Ninth Avenue, Windy Bank Est, Hightown, Cleckheaton 43y   NG0829A  
4957 4 57 456 1957 12 03 Florence Cockroft 16 Higher Grange Rd, Pudsey 72y   NG0512  
4958 4 58 457 1957 12 03 Harriet Annie Lincoln 60 New Works Rd, Low Moor 81y   NG0024A  
4959 4 58 458 1957 12 04 Friend Sharp 14 Norbury Rd, Ravenscliffe, Eccleshill 72y   B41 St Luke's Hospital
4960 4 58 459 1957 12 05 Mary Elizabeth Redfearn Breighton Adown, Buttershaw 81y   NG0803 St Luke's Hospital
4961 4 58 460 1957 12 10 Sarah Annie Oates 237 Parkside Rd, Bradford 5 76y   NG0756C  
4962 4 58 461 1957 12 18 Alice Sykes 58 Blackstone Ave, Wyke 48y   NG1106 66 Blackstone Avenue
4963 4 58 462 1957 12 18 Eva Emmett 26 Mayfield Place, Wyke 55y   NG0769A  
4964 4 58 463 1957 12 18 William Orme 14 Clare Crescent, Wyke 75y   NG0667  
4965 4 58 464 1957 12 28 Amos Sugden 3 Taylor Fold, Wyke 76y   NG1143 The Park Rooley Lane
4966 4 59 465 1957 12 31 Mary Donnelly 28 Shirley Avenue, Wyke 67y   NG0318 St Luke's Hospital
4967 4 59 466 1958 01 01 Sarah Ann Wragg 5 Alms Houses, Abb Scott Lane, Low Moor 73y   NG2090 St Luke's Hospital
4968 4 59 467 1958 00 00              
4969 4 59 468 1958 01 25 Willie Hanson 6 Hanson Fold, Wyke 72y   NG0349 Double grave with 348A
4970 4 59 469 1958 01 27 John William Horrocks 52 Windmill Lane, Wibsey 69y   NG0722B  
4971 4 59 470 1958 02 19 Edmund Mitchell Lane End Cottage, Sowden Lne, Norwood Green 69y   NG0868A  
4972 4 59 471 1958 03 07 Janet Knowles 19 South St, Little Horton , Bradford 13m   NG0828A  
4973 4 59 472 1958 03 31 Harry Smith 11 Fountain Terr, Wyke 88y   NG0565  
4974 4 60 473 1958 04 09 Edith Woodhead 2 Knowle Lane, Wyke 74y   NG0040A  
4975 4 60 474 1958 04 18 Thomas Woodruff 9 St Mary's Crescent 44y   NG1096  
4976 4 60 475 1958 05 31 Barry Buttrick 4 Wainman Square 11m   NG0547  
4977 4 60 476 1958 06 03 Charles William Candelatt 231 Wyke Lane 85y   NG0314  
4978 4 60 477 1958 06 14 Mary Ellen Ingle Tarn Gate Crossing, Thornton Cleveleys 94y   NG0541 Town Gate, New Road Thornton Cleveleys
4979 4 60 478 1958 06 18 Heather Langton 217 Horton Lane, Bradford 5h      
4980 4 60 479 1958 06 27 Mary Ellen Greenwood The Woodlands, North Rd, Glossop 85y Ashes NG0370  
4981 4 60 480 1958 07 04 Grace Ellen Greenwood 9 St Mary's Drive, Wyke 67y   NG1105  
4982 4 61 481 1958 07 10 Lily Brook 108 Towngate, Wyke 71y   A52  
4983 4 61 482 1958 07 19 Eliza Margaret Beattie 31 Holroyd Hill, Bradford 6 91y   NG1097  
4984 4 61 483 1958 08 18 Sarah Ann Hoggan 1 Halifax Row, Wyke 73y   NG0451  
4985 4 61 484 1958 08 21 Walter Henry Terry 17 Tordoff Rd, Wesley Place, Low Moor 73y   NG0284 St Luke's Hospital
4986 4 61 485 1958 08 27 Susannah Lightowler Huddersfield Rd, Wyke 82y   NG0603 Duke of York Home
4987 4 61 486 1958 10 01 Joseph Arthur Eastwood 235 Wyke Lane, Wyke 73y   NG1095  
4988 4 61 487 1958 10 16 Ethel Louisa Walls 16 Pearson Row, Wyke 49y   NG1144  
4989 4 61 488 1958 11 05 Stephen Robert Hirst 63 Blackstone Av, Wyke 2m   PBCES  
4990 4 62 489 1958 11 08 Albert Lincoln 573 Halifax Rd, Buttershaw 82y   NG0024A  
4991 4 62 490 1958 11 21 Joseph Briggs 15 Griffe Drive 87y   NG0408  
4992 4 62 491 1958 11 26 Harriet Ann Kellett 5 Wainman Square 81y   NG0350  
4993 4 62 492 1958 12 11 Hannah Bertha Moore 9 Wyke Cres. 69y   NG1098  
4994 4 62 493 1958 12 18 Lizette Kellett 15 Ashfield Terrace 72y   NG0608A Staincliffe General Hospital
4995 4 62 494 1958 12 24 John Wilson 13 Ellis St. Bradford 5 68y   NG0828A  
4996 4 62 495 1959 01 08 Annie Bough Sage St, Canterbury Av. Bradford 75y   NG0916B Baugh St Luke's Hospital
4997 4 62 496 1959 01 16 Elizabeth Stockley 44 Griffe Rd., Wyke 71y   NG1104  
4998 4 63 497 1959 01 21 Edith Harriet Dutton 234 Wyke Lane 79y   NG1099  
4999 4 63 498 1959 01 28 Amy Dyson 3 Hanson Fold 65y   NG1100  
5000 4 63 499 1959 02 20 Augustus James Marks Late 'Ochrehill' Lightridge Rd, Fixby, Huddersfield 45y   NG0587 London Hospital E1
5001 4 63 500 1959 02 23 Selinda Greenough 120 West End Rd, Morecambe 89y   NG0726B  
5002 4 63 501 1959 03 03 Nancy Ellen Sugden 16 Laverack Field, Wyke 77y   NG0916  
5003 4 63 502 1959 03 03 Annie Pinder 26 Glenfield Terrace, Odsal 84y   D64? 21 Park Drive, Heaton
5004 4 63 503 1959 03 06 Annie Ackroyd 3 Moorlea Drive, Baildon 87y   NG0039  
5005 4 63 504 1959 03 25 Fanny Reeves Laburnum Terrace, Norwood Green 86y   NG0549 St John's Hospital Haliax
5006 4 64 505 1959 04 10 Fred Fawcett 45 Whitehall Rd, Wyke 67y   NG1101  
5007 4 64 506 1959 04 24 Walter Teagle 6 Bank House, School St, Low Moor 70y   NG0668  
5008 4 64 507 1959 05 07 Ian Pollock 5 Cameron Ave, Wyke 8h   PBCES  
5009 4 64 508 1959 05 12 Annie Petty 41 Clare Rd, Wyke 83y   NG0168a  
5010 4 64 509 1959 05 29 Walter Kellett 3 Wroe Terr, Wyke 49y   NG0713  
5011 4 64 510 1959 06 27 Bessie Newton Reed 112 Albert Terr, Towngate 84y   NG0607 Towngate Wyke
5012 4 64 511 1959 07 08 Philip Knowles 19 South St, Little Horton , Bradford 7m   NG0828A County Hospital York
5013 4 64 512 1959 07 24 Adeline Crabtree 1 Bentley St, Wyke 85y   NG0419 1 Bentley Fold
5014 4 65 513 1959 07 27 Angela Challoner 31 New Fold, Bradford 6 9m   NG1165  
5015 4 65 514 1959 09 12 Arnold Collins 35 Shirley Avenue, Wyke 67y   NG0016A  
5016 4 65 515 1959 09 15 John William Oldfield 29 Mayfield Terrace, Wyke 71y   NG0004A  
5017 4 65 516 1959 11 21 Beatrice May Marsden 36 Griffe Head Rd, Wyke 68y   NG1103 St Luke's Hospital
5018 4 65 517 1959 11 23 Ann Lightowler 9 Wainman St, Wyke 80y   NG0613B St Luke's Hospital
5019 4 65 518 1959 11 25 Hannah Clegg 698 Woodview Terr,Huddersfield Rd, Wyke 72y   NG0048A  
5020 4 65 519 1959 12 16 Jane Elizabeth Healey 122 Town Gate, Wyke 81y   NG0694  
5021 4 65 520 1959 12 18 Gerty Forrest 2 Thornbury Ave, Thornbury 73y   NG0134A  
5022 4 66 521 1960 01 16 Eliza Ann Sugden Green Mount Norwood Green 74y   NG1094  
5023 4 66 522 1960 01 19 Constance Stillings 21 Worthinghead Rd, Wyke 61y   NG1108 Royal Infirmary
5024 4 66 523 1960 01 25 Robert Illand 1 Kendal House, Castlerigg Green, Bradford 80y   NG1136  
5025 4 66 524 1960 01 28 Ethel Ann Holdsworth 15 Garden Field, Wyke 73y   NG0939  
5026 4 66 525 1960 02 04 Emma Jane Binns 1 Whitehall Ave, Wyke 77y   NG0226  
5027 4 66 526 1960 02 11 Martha Lupson 131 Woodside Rd, Wyke 77y   NG0197  
5028 4 66 527 1960 02 20 Emma Jane Wilkinson 6 Mayfield Terrace, Wyke 81y   NG0600  
5029 4 66 528 1960 03 04 Olive Sharp 29 Gardenfield, Wyke 76y   NG0116 St Luke's Hospital
5030 4 67 529 1960 04 22 Jane Annie Western Late, 2 The Culvert, Lower Wyke 85y   NG0573 Thornton View Clayton
5031 4 67 530 1960 05 05 Frederick William Dutton Late, 234 Wyke Lane, Wyke   Ashes    
5032 4 67 531 1960 05 07 Elizabeth Ann Williams 87 Towngate, Wyke 78y   NG1145 Stoney Ridge Hospital Cottingley
5033 4 67 532 1960 05 17 William Tattersley Toft Ave, Wyke 70y   NG1148 St Luke's Hospital
5034 4 67 533 1960 06 09 Willie Hoyle 4 School Place, New Road Side, Wyke 80y   NG0196 79y
5035 4 67 534 1960 06 15 George Alfred Stockley 44 Griffe Rd., Wyke 72y   NG1104  
5036 4 67 535 1960 06 17 Sam Smith 14 Garden Field, Wyke 87y   NG0405 St Luke's Hospital
5037 4 67 536 1960 07 14 David Tinker Mosley 38 Whitehall Ave, Wyke 71y   NG1102 Old Church Hospital Romford
5038 4 68 537 1960 08 06 Annie Louisa Richards 77 Metchley Lane, Edgbaston, Birmingham 81y   NG0302 77 Metchley Place, Birmingham
5039 4 68 538 1960 09 03 Dan Smith 72 Wyke Lane, Wyke 20y   NG0935  
5040 4 68 539 1960 10 13 Ada Robinson 47 Enfield Rd West, Baildon 52y   NG1109 General Infirmary Leeds
5041 4 68 540 1960 10 22 Minnie Bateman 12 Worthinghead Rd, Wyke 80y   NG1110  
5042 4 68 541 1960 11 01 Alice Wilkinson Halva' UpperGreen Lane, Hove Edge, Brighouse 82y   NG0048  
5043 4 68 542 1960 11 09 Lily Wilkinson 5 Temperance Field 85y   NG0200 Thornton View
5044 4 68 543 1960 11 10 Carol Birch 8 Angus Ave 7m   PBCES St Luke's Hospital
5045 4 68 544 1960 11 18 Maria Webster Seevy Rd, Goole 65y Should be 'Seavy' NG0084A Royal Infirmary Sheffield
5046 4 69 545 1960 11 22 Fred Moore 1 Clegg St, Wyke 68y   NG1098  
5047 4 69 546 1961 01 04 Swain Metcalf 670 Huddersfield Road, Wyke 74y   NG0642  
5048 4 69 547 1961 01 13 Ellen Fletcher 9 Lime St, Gt Horton, Bradford 80y   NG0342  
5049 4 69 548 1961 01 14 Valerie Phelps 6 Angus Ave, Wyke 6m   PBCES  
5050 4 69 549 1961 02 02 Ada Harrison 15 The Croft, Low Moor, Bradford 76y   NG0322B  
5051 4 69 550 1961 02 08 William Archer Dod 7 Hanson Place 73y   NG0802  
5052 4 69 551 1961 02 10 Holdsworth Akeroyd 19 St Pauls Rd, Manningham 87y   NG0323 Royal Infirmary
5053 4 69 552 1961 02 22 Amy Catherine Hartley Park View Nursing Home, Park View Rd, Bradford 89y   Other North side of the altar
5054 4 70 553 1961 03 11 Lucy Waller 7 Kenmore Rd, Moore Ave, Wibsey, Bradford 87y   NG0424  
5055 4 70 554 1961 04 25 Annie Elizabeth Firth 15 Laverack Field, Wyke 86y 695 NG0695  
5056 4 70 555 1961 04 29 Alice Gummersall 9 Griffe Drive, Wyke 82y   Other By vestry door
5057 4 70 556 1961 05 04 Edith May Dawson 16 Garden Field, Wyke 73y 44A NG0044A  
5058 4 70 557 1961 05 06 Joseph Brear 25 Garden Field, Wyke 84y 2110 NG2110  
5059 4 70 558 1961 05 27 William Burnell 10 Griffe Rd, Wyke 79y   NG0741  
5060 4 70 559 1961 06 02 Arthur Vernon Holt Spink 209 Wyke Lane, Wyke 78y 1112 NG1112  
5061 4 70 560 1961 06 08 Milnes Hirst 106 Storr Hill, Wyke 84y 476 NG0476 149 Heights Lane Bradford
5062 4 71 561 1961 08 04 Annie Hoyle 2 North St, Low Moor, Bradford 74y   NG0014  
5063 4 71 562 1961 08 16 Frank Hemingway 74 Garden Field 82y 31A C19  
5064 4 71 563 1961 09 07 Isaac Mallinson 32 Garden Field 83y 298 NG0298 St Luke's Hospital
5065 4 71 564 1961 10 11 Albert Edward Brant 3 Farrar Buildings, Wyke 80y 792 NG0792 149 Heights Lane
5066 4 71 565 1961 10 18 Fred Wilkinson 2 Brick Row, Wyke 77y 758 NG0758  
5067 4 71 566 1961 10 19 Vivienne Hazel Whitaker 5 St Marys Drive, Wyke 17m Infant PBCES Westwood Double Grave with Paul David
5068 4 71 567 1961 11 30 Walter Ellis 61 Green Lane, Wyke 71y   NG0313  
5069 4 71 568 1961 12 20 Mahalath Crossland 35 Griffe Drive, Wyke 7y   NG0660A 77y years
5070 4 72 569 1961 12 29 Maud Ethel Terry 13 Tordoff Rd, Low Moor 75y   NG0284  
5071 4 72 570 1961 12 30 Walter Presgrave 52 New Line, Greengates 71y   NG0918 345 Bowling Back Lane,
5072 4 72 571 1962 01 03 Florence Lockwood 14 Barraclough Square, Wyke 65y   NG1113 St Luke's Hospital
5073 4 72 572 1962 01 20 John Richard Jordan 9 Shirley Cres, Wyke 2y   PBCES  
5074 4 72 573 1962 01 25 Mary Jane Wells 10 Highfield Terrace, Wyke 85y Ashes NG0765  
5075 4 72 574 1962 03 03 Kim Alison Wike 698 Huddersfield Rd 4m Infant PBCES 4½m
5076 4 72 575 1962 03 10 Willie Mitchell 6 Griffe Head Road 74y   NG0211a  
5077 4 72 576 1962 03 14 Mabel Cornwell 52 Market St, Milnsbridge, Huddersfield 70y   NG0185  
5078 4 73 577 1962 03 26 Sargeant Murphy 1011 Manchester Rd, Odsal 72y   NG0777  
5079 4 73 578 1962 04 03 Sarah Jane Hepworth 80 Rufford St, Bradford 85y   NG0789  
5080 4 73 579 1962 05 30 Paul David Whitaker 5 St Marys Drive, Wyke 3m Infant PBCES Westwood Double Grave with Vivienne Hazel
5081 4 73 580 1962 05 30 Elsie Garside 14 Whitehall Avenue 62y   NG0830B  
5082 4 73 581 1962 06 08 Ann Elizabeth Orr Little 21 Whitehall Ave 61y Ashes NG0621B  
5083 4 73 582 1962 09 01 Thomas Dunn 39 St Mary's Cres 1hr   PBCES  
5084 4 73 583 1962 10 26 William Crabtree Holmlea' 492 Bradford Rd, Bailiff Bridge, Brighouse 79y Sexton over 30 yrs NG0036A  
5085 4 73 584 1962 10 30 Andrew Phelps 47 Southfield Square, Lumb Lane, Bradford 5m      
5086 4 74 585 1962 11 09 Daisy Hicks 8 Wainman Square, Wyke 71y   NG0321B  
5087 4 74 586 1962 11 10 George William Gibson 3 St Marys Cres, Wyke 43y   NG1111  
5088 4 74 587 1962 00 00 Colin Appleyard Town Gate, Wyke     PBCES Stillborn 1962 12 31
5089 4 74 588 1963 01 10   Pickles 18 Balme Lane   Still born child of Derek and Alexandra Mary Pickles PBCES  
5090 4 74 589 1963 02 20 Mary Ackroyd 20 Griffe Rd, Wyke 46y   NG0676 20 Griffe Head Road
5091 4 74 590 1963 02 25 Steven Smith 71 Green Lane, Wyke 49y   NG1114  
5092 4 74 591 1963 03 13 Elizabeth Mawson 43 Griffe Drive, Wyke 95y   NG0792C Thornton View Clayton
5093 4 74 592 1963 03 19 Mary Ann Greenwood 118 Towngate, Wyke     NG0643  
5094 4 75 593 1963 03 29 Fanny Whitehead The Cedars, Morton Terrace, Gainsborough 78y   NG0917  
5095 4 75 594 1963 05 20 Ann Hainsworth Wells 703 Cleckheaton Rd, Oakenshaw 91y   NG0745 Stoney Ridge Hospital
5096 4 75 595 1963 06 18 Eva Birkby The Cottage, 19 Moor Top Rd, Low Moor 84y   NG0124  
5097 4 75 596 1963 07 08 Arthur Wade Karen House, 66 Waterloo Rd, Blackpool 44y Ashes    
5098 4 75 597 1963 10 10 Hetty Farrar 7 Binks Fold, Wyke Lane 42y   NG0932 St Luke's Hospital
5099 4 75 598 1963 11 01 Charles John Wheatcroft Late, Shirley Manor, Wyke 87y   NG0763 Calverley Hospital
5100 4 75 599 1963 11 18 Lila Gertrude Hirst 17 Ashfield Terr, Wilson Rd, Wyke 76y   NG0558 Thornton View, Clayton
5101 4 75 600 1963 11 28 Harry Dawson 16 Garden Field, Wyke 79y   NG0044A Park, Rooley Lane,
5102 4 76 601 1963 12 03 Adelaide Kay Crowther Westwood House, Westfield, Wyke 54y Ashes    
5103 4 76 602 1963 12 09 Edwin Healey Town Gate, Wyke     NG0694 Park Rooley Lane, West Bowling
5104 4 76 603 1964 03 21 Edna Bentley Woodside Rd, Low Moor 91y   NG0301 9 Fairfield Road, Wyke
5105 4 76 604 1964 03 26 Adelaide Atkinson 59 Clare Rd, Wyke   Ashes NG0559  
5106 4 76 605 1964 03 26 Martha Ann Milner 24 Shirley Ave, Wyke 62y   NG0542  
5107 4 76 606 1964 04 22 Herbert Sugden Green Mount Norwood Green, Halifax 83y   NG1094  
5108 4 76 607 1964 04 23 Gilbert Dod 7 Hanson Place, Wyke 36y   NG0802  
5109 4 76 608 1964 05 22 James Jefferson Banks 231 Westfield Lane 62y   NG1115  
5110 4 77 609 1964 05 28 Paul Wilson 28 St Marys Ave 3d   PBCES  
5111 4 77 610 1964 05 28 John Wilson 28 St Marys Ave 1d   PBCES  
5112 4 77 611 1964 06 01 Winifred Todd 647 Huddersfield Rd, Wyke 83y   NG0685A  
5113 4 77 612 1964 06 10 Harry Kellett 12 Towngate, Wyke 72y   NG0868  
5114 4 77 613 1964 06 19 Muriel Feltham 6 Carr House Grove, Wyke 34y   NG1107 Fetham
5115 4 77 614 1964 07 01 Kathleen Edmunds 2 Bentley St 53y   NG0604  
5116 4 77 615 1964 07 16 Florrie Ramsden 74 Town Gate, Wyke 59y   NG1116  
5117 4 77 616 1964 07 17 Ada Hinchcliffe 54 Garden Field, Wyke 86y   NG0780A St Luke's Hospital
5118 4 78 617 1964 08 01 Harold Marsden 17 St Marys Gdns,Wyke 72y   NG1103  
5119 4 78 618 1964 08 26 Elizabeth May Tordoff 5 Hurst Fold, Wyke 82y   NG0456  
5120 4 78 619 1964 09 26 Donald Keach 9 St Marys Gardens 36y   NG1117 St Luke's Hospital
5121 4 78 620 1964 11 07 Charles Samuel Richards 77 Metchley Lane, Harbourne, Birmingham 87y   NG0302  
5122 4 78 621 1964 11 28 Edith Smith 3 Griffe Head Crescent, Wyke 72y   NG0869A St Luke's Hospital
5123 4 78 622 1964 12 09 Horace Shepherd 204 Westfield Lane, Wyke 66y 200 NG0145 204 Wyke Lane, Wyke
5124 4 78 623 1964 12 10 Sugden Whiteley 31 Clare Road, Wyke 89y   NG0867  
5125 4 78 624 1965 01 13 Catherine Harrison 54 Towngate, Wyke 75y   NG0709 75y
5126 4 79 625 1965 01 18 Angus Booth Late, Huddersfield Rd, Wyke 81y   NG1151 The Park Rooley Lane
5127 4 79 626 1965 01 23 Harriett Hoyle 4 School Place, New Road Side 80y   NG0624A  
5128 4 79 627 1965 01 26 Walter Wright Sunny Nook, Farrar Blds, Wyke 81y   B44  
5129 4 79 628 1965 01 27 Harrison Petty Shirley Manor, Wyke 79y   NG0272 Bradford Royal Infirmary
5130 4 79 629 1965 02 02 Herbert Barraclough 6 Halifax Row 82y   NG0554  
5131 4 79 630 1965 03 01 Edith Ackroyd 9 Griffe Head Rd 80y   NG0676  
5132 4 79 631 1965 03 10 Sarah Kellett 50 Whitehall Avenue 80y   NG0654 St Luke's Hospital
5133 4 79 632 1965 03 23 Annie Hizzett 214 Westfield Lane 76y   NG0623  
5134 4 80   1965 00 00 Agnes Mary Briggs     Ashes    
5135 4 80 633 1965 03 27 Muriel Grange 12 Griffe Dve 52y   NG1119  
5136 4 80 634 1965 03 29 Florrie Burnett 102 Storr Hill 78y   NG0297 The Park, Rooley Lane, Bradford 5
5137 4 80 635 1965 04 03 Arthur Wilkinson 589 Huddersfield Rd 91y   NG0109  
5138 4 80 636 1965 04 29 Ian Anthony Curley 11 Brick Row 23h   PBCES  
5139 4 80 637 1965 06 05 Phyllis Ann Terry 21 Clare Cres 55y   NG0919B  
5140 4 80 638 1965 06 09 Willie Kellett 2 Laverack Place 62y   NG0735  
5141 4 80 639 1965 06 12 Sharon Mary Darbey 32 St Marys Cres 11h   NG0876/7 Removed from Central Pathway underneath Extension to Church
5142 4 80 640 1965 06 30 Martha Terry 21 Clare Cres 82y   NG0919B  
5143 4 81 641 1965 07 20 Florence Gertrude Flathers 7 Garden Field 72y   NG0145 Leeds Road Hospital, Bradford
5144 4 81 642 1965 07 21 Hannah Woodcock 2 Mayfield, Norwood Green 77y   NG0673A Double grave with 673B
5145 4 81 643 1965 08 28 Grace Wilkinson 5 Hind St, Late 589 Huddersfield Rd 91y   NG0109  
5146 4 81 644 1965 09 07 Florence Hoyle 48 Griffe Head Road 78y   NG0098  
5147 4 81 645 1965 09 16 Clare Small Binks Fold, Wyke Lane 4d   PBCES  
5148 4 81 646 1965 11 12 Frances Margaret Burnell 127 Abb Scott Lane, Low moor (10 Griffe Rd) 81y   NG0741 Thornton View, Clayton
5149 4 81 647 1966 01 25 Celia Marston Northern View 81y   NG0613A  
5150 4 81 648 1966 01 26 Ellen Ely Inman 36 Griffe Drive, Wyke 82y   NG0619  
5151 4 82 649 1966 01 26 Annie Naylor Norwood Green 85y   NG0868A  
5152 4 82 650 1966 02 01 Deborah Burke 44 Shirley Ave 1h   PBCES  
5153 4 82 651 1966 02 01 Elaine Burke 44 Shirley Ave 1h   PBCES  
5154 4 82 652 1966 02 08 Ivy Irene Kellett 5 Fairfield Rd 67y   NG0781A  
5155 4 82 653 1966 02 15 Ronald (otherwise Roland) Holt 6 Crest Ave, Wyke 52y   NG1120  
5156 4 82 654 1966 02 17 Ethel Annie Webster 31 Shirley Ave, Wyke 81y   NG0931  
5157 4 82 655 1966 03 01 Angus Smith Temperance Field, Wyke 65y   NG0652  
5158 4 82 656 1966 05 11 Louisa Riley Garden Field 83y   NG0071B Calverley Hospital, Thornbury
5159 4 83 657 1966 06 02 Edward Whitaker 26 Griffe Head Road 70y   NG1122  
5160 4 83 658 1966 06 06 Lily Briggs 52 Blackstone Avenue 59y   NG1123 St Luke's Hospital 60y
5161 4 83 659 1966 07 12 Winston Barker 12 Mayfield Terrace   Ashes NG0727  
5162 4 83 660 1966 07 16 Nellie Hill 11 Linton Grove, Rastrick 70y   NG1163 St John's Hospital Halifax
5163 4 83 661 1966 07 21 Turner Haigh Delamere St, Marshfields, Bradford 87y   NG0310 Meadowcroft, 289 Rooley Lane, West Bowling
5164 4 83 662 1966 07 29 George Henry Luscombe 194 Westfield Lane 66y   NG1124  
5165 4 83 663 1966 09 23 Annie Parkinson 18 Laverack Field 75y   NG0716 Thornton View, Clayton
5166 4 83 664 1966 10 07 Samuel Whitehead 3 Whitehall Rd 79y   NG0829B  
5167 4 84 665 1966 10 25 Walter Bower 57 Clare Rd, Wyke 86y   NG0920B The Park Rooley Lane Bradford
5168 4 84 666 1966 12 28 Arthur Greenwood 18 Parkin St, Hightown, Liversedge 73y   NG0030  
5169 4 84 667 1967 02 14 Walter Boyes Manchester Rd, Bradford 57y   NG1125 149 Heights Lane, Daisy Hill, Bradford
5170 4 84 668 1967 03 18 Jessie Bailey 108 Towngate, Wyke 77y Grave Book - Grave 514 claimed by Baily family as containing 1 infant only, please open on request them if possible NG0514 Heaton Royds Hospital Cottingley
5171 4 84 669 1967 03 21 Cordelia Barraclough West Croft, Wyke 92y   NG0816C The Park Rooley Lane West Bowling
5172 4 84 670 1967 04 24 Barbara Hyland 13 St Marys Drive 3m   PBCWS  
5173 4 84 671 1967 05 01 Ethel Tetlow Stone Leigh Farm, Shelf 81y   NG0824  
5174 4 84 672 1967 06 23 Tania Louise Teasdale 6 Angus Ave, Wyke 2m   PBCWS 1m
5175 4 85 673 1967 07 12 Henrietta Mitchell 6 Griffe Head Road 78y   NG0781  
5176 4 85 674 1967 07 22 Nellie Crabtree 8 Worthing St 78y Ashes NG0471  
5177 4 85 675 1967 10 19   Bakes 23 Griffe Drive, Wyke 45mins   PBCWS St Luke's Hospital
5178 4 85 676 1967 12 30 Edith Johnson Temperance Field 64y   NG0551 St Luke's Hospital
5179 4 85 677 1968 01 05 Michael Hester The Park, Rooley Lane, Bradford 82y Otherwise Michael Hastar B50  
5180 4 85 678 1968 01 12 Tom Pearson 5 Wilkinson Fold, Wyke 88y   Other Unrecorded ground south side of church
5181 4 85 679 1968 01 24 Betsy Hannah Longbottom 37 Hutton Rd, Bradford 5 92y   NG0230 St Luke's Hospital
5182 4 85 680 1968 01 27 Wendy Jones 60 Mill St, Low Moor 1d   PBCWS  
5183 4 86 681 1968 02 27 Annie Brayshaw Prospect St, Buttershaw 83y   NG0720 St Luke's Hospital
5184 4 86 682 1968 03 19 Dora Tate 25 Griffe Drive 56y   NG1126 Royal Infirmary
5185 4 86 683 1968 06 06 Harry Mason 10 Brick Row 79y   NG0751 75y
5186 4 86 684 1968 07 12 Beatrice Crossland 451 Huddersfield Road, Wyke 78y   NG0437A  
5187 4 86 685 1968 10 02 Fred Petty 4 Kevern House, Manchester Rd, Bradford 76y   NG1152  
5188 4 86 686 1968 10 08 Fanny Metcalf 670 Huddersfield Road, Wyke 84y   NG0642  
5189 4 86 687 1968 11 21 Henrietta Lightowlers 33 Netherlands Avenue, Odsal 85y 249 NG0782  
5190 4 86 688 1968 12 11 Martha Mitchell Lane Ends Cottage, Norwood Green 75y   NG0868A  
5191 4 87 689 1968 12 28 Elsie Petty Thornton View, Clayton 73y   NG1152  
5192 4 87 690 1969 01 08 Lucy Firth 74 Garden Field 68y   NG0861B  
5193 4 87 691 1969 01 17 Mary Lizzie Walker 37 Garden Field 84y   NG0672A  
5194 4 87 692 1969 01 29 Gertrude Rhodes 3 Mayfield View 84y   NG0923B Bierley Hall Hospital
5195 4 87 693 1969 03 21 Elizabeth Jane Fawcett Died in Bierley Hall Hospital 77y      
5196 4 87 694 1969 04 25 Elsie Illingworth 11 Aysgarth Close, Wyke 75y Ashes 1/5/69    
5197 4 87 695 1969 06 20 Frederick Vincent Briggs Died in St Luke's Hospital. Home Blackstone Ave 71y 1123 NG1123  
5198 4 87 696 1969 08 20 Laura Kellett 10 Providence St, Scholes, Cleckheaton 87y      
5199 4 88 697 1969 09 11 Amanda Mallinson 33 Woodside Crescent, Cottingley 3h Baby    
5200 4 88 698 1969 09 30 Annie Pinder Northern View, Rooley Avenue, Odsal, Bradford 84y 168 NG0168  
5201 4 88 699 1969 10 24 Alice Horrocks 152 Windmill Lane, Wibsey 79y 722B NG0722B  
5202 4 88 700 1969 10 27 George Hitchen 27 Wigan St, Bradford 72y 367 NG0367  
5203 4 88 701 1969 12 09 Herbert Abbott Edenbar, 4 Carr House Lane, Wyke 77y 924B NG0924B  
5204 4 88 702 1970 01 08 Alfred Greenwood 7 Temperance Field, Scholes, Cleckheaton 74y      
5205 4 88 703 1970 02 05 Clara Cheetham 577 Huddersfield Road, Wyke 80y 761 NG0761  
5206 4 88 704 1970 03 18 Harrison Ingle Died in St Luke's Hospital. 74y 912 NG0912  
5207 4 89 705 1970 04 04 Frances May Barraclough Walnut Cottage, Latchmoor, Brockenhurst 76y   NG0926  
5208 4 89 706 1970 04 22 Harry Easby Carr Bottom Lane, Bankfoot 79y   NG0938  
5209 4 89 707 1970 04 28 Ethel Young 33 Wyke Crescent, Wyke 74y   NG0547  
5210 4 89 708 1970 05 13 Nellie Smith Chadwick 4 Bowling Green Fold, Wyke 70y   NG0782  
5211 4 89 709 1970 05 16 Frederick Cecil Coates Shirley Manor, Wyke 85y   NG0630  
5212 4 89 710 1970 05 28 Arthur Desmond Coates 7 Pyrah Street, Wyke 33y   NG1153 Desmond Coates
5213 4 89 711 1970 06 17 Sidney Abrams 3 Corrance Road, Wyke 81y   NG1154  
5214 4 89 712 1970 10 14 Dorothy Worsnop 32 Ascot Parade, Horton Bank Top, Bradford 44y 1155 NG1155  
5215 4 90 713 1970 10 21 Hilda Smith 71 Green Lane, Wyke 53y 1114 NG1114  
5216 4 90 714 1970 10 26 Ann Murphy 1013A Manchester Road, Odsal 78y 777 NG0777  
5217 4 90 715 1970 10 29 Fred Wilkinson 10 Laverack Field, Wyke 88y 26 & 27 NG0026/7  
5218 4 90 716 1970 11 13 Charles Gandy 800a Leeds Road, Bradford 79y 1160 NG1160  
5219 4 90 717 1970 11 16 Dorothy Boyes 2 Tofts Avenue, Wyke 55y 1125 NG1125  
5220 4 90 718 1970 12 01 Harold Smith 23 Beverley Avenue, Wyke 63y 1127 NG1127  
5221 4 90 719 1970 12 18 Mary Ann Healey 136 High Fernley Rd, Wyke 89y 721AB NG0721AB  
5222 4 90 720 1971 02 23 Kim Michelle Shields 5 St Marys Avenue, Wyke (Home of mother) 6h Baby    
5223 4 91 721 1971 03 17 James Mulholland 5 Aysgarth Close, Wyke 85y   NG1128  
5224 4 91 722 1971 03 19 Norman Inman 2 Shirley Avenue, Wyke 63y   NG0737  
5225 4 91 723 1971 03 25 Leonard Taylor 1 Clegg St, Wyke 69y   NG0555  
5226 4 91 724 1971 04 20 Edith Kellett 12 Towngate, Wyke 79y   NG0868  
5227 4 91 725 1971 05 19 Frank Atack 133 Woodside Road, Wyke 85y   NG08333  
5228 4 91 726 1971 07 01 Sally Ann Bullock 4a Wyke Crescent, Wyke 2d      
5229 4 91 727 1971 07 15 Lilian Ludlum 11 St Johns Grove, Haysham, Morecambe 64y      
5230 4 91 728 1971 10 14 Mary Jane Taylor 7 Back West Croft, Wyke 95y   NG0231  
5231 4 92 729 1971 10 15 Amelia Smith 66 Garden Field Wyke 79y 915 NG0915  
5232 4 92 730 1971 10 26 Doris Ryan 8 Hanson Place, Wyke 69y 744A NG0744A  
5233 4 92 731 1971 12 14 Bridget Mary Malone 3 Wyke Crescent, Wyke 92y 152 NG0152  
5234 4 92 732 1972 01 20 Edith Hanson 3 Moorlea Drive, Baildon 67y 39 NG0039  
5235 4 92 733 1972 02 07 Annie Edith Edmunds 1 Bentley St, Wyke 83y 604 NG0604 2 Bentley Street
5236 4 92 734 1972 02 10 Michael Phillip Smith 10 Carr Road, Wyke 2w Baby    
5237 4 92 735 1972 02 19 Ivy Scull 4 Cyril Place, Wyke 74y 914B NG0914B  
5238 4 92 736 1972 03 22 Catherine Mary Wright Lacey 45 Clare Road, Wyke 57y 709 NG0709  
5239 4 93 737 1972 03 23   O'Donoghue Died at Bradford Royal Infirmary Maternity Unit 2h Baby    
5240 4 93 738 1972 03 30 Adelaide Hookey Died at Northern View, Rooley Avenue, Odsal 83y   NG0830  
5241 4 93 739 1972 07 27 Freddie Worsnop 702 Huddersfield Road(Died at Bierley Hall Hospital) 74y   NG1138  
5242 4 93 740 1972 10 30 Susannah Aspinall Died at 394 Halifax Road, Brighouse 80y   NG0743  
5243 4 93 741 1972 11 16 Lily Ellen Crabtree 492 Bradford Road, Bailiff Bridge, Brighouse 74y      
5244 4 93 742 1972 11 21 Annie Jagger 8 Griffe Head Rd, Wyke 90y      
5245 4 93 743 1972 11 28 Florence Theresa Hellawell 10 Griffe Drive 77y   NG0914  
5246 4 93 744 1973 03 27 Honora otherwise Nora Shannon Died at 35 Tetley Drive, Birkenshaw 80y   NG0344  
5247 4 94 745 1973 04 06 Ernest Wilkinson 30 Foldings Parade, Scholes 64y   NG1168  
5248 4 94 746 1973 04 20 Mabel Alice Kellett 14 Wroe Terrace, Wyke 74y   NG0867A  
5249 4 94 747 1973 04 25 Wilson Aspinall 394 Halifax Road, Brighouse 82y   NG0743  
5250 4 94 748 1973 07 06 Eva Gertrude Wilkinson 5 Hind Street, Wyke 74y   NG0109  
5251 4 94 749 1973 07 12 Arnold Foster Clegg 16 Westcroft, Wyke 87y   NG0048A  
5252 4 94 750 1973 08 23 Roderick James O'Donoghue 27 Greengates Ave, Wyke 3 ds      
5253 4 94 751 1973 09 19 Richard Guise 4 Hawes Rd, Bankfoot 66y   NG0815  
5254 4 94 752 1973 11 02 Laura Hannah Woodhead 2 Kirkley Ave, Wyke 81y   NG0869  
5255 4 95 753 1973 12 31 Amy Illingworth 86 Carr House Gate 96y   NG0837  
5256 4 95 754 1974 02 07 Harry Gilchrist McFarlane 488 Bradford Road, Bailiff Bridge 53y   NG1169  
5257 4 95 755 1974 02 14 Ida Sharp 27 Westcroft, Wyke 78y   NG0317  
5258 4 95 756 1974 03 01 George William Farrar 252 Whitehall Rd,Wyke 82y   NG007B  
5259 4 95 757 1974 03 19 Norman Ackroyd 30 Griffe Road, Wyke 65y   NG1170  
5260 4 95 758 1974 04 09 Elizabeth McFarlane 483 Bradford Road, Bailiff Bridge 85y   NG1149  
5261 4 95 759 1974 04 20 Ann Ellen Ellis 5 Farrar Buildings, Wyke 90y   B45  
5262 4 95 760 1974 05 24 Anthony Price 11 Close Lea, Rastrick 40y   NG0060A  
5263 4 96 761 1974 07 25 Irene Golding 69 Storr Hill, Wyke 53y   NG0348 possibly same grave as 347A same family
5264 4 96 762 1974 07 26 Mary Ann Whiteley 31 Clare Road, Wyke 93y   NG0867  
5265 4 96 763 1974 09 02 Willie Bentley 15 Fairfield Rd, Wyke 65y   NG1118  
5266 4 96 764 1974 10 02 Elsie Jane Arnold 30 Flower Garth, Harrogate Road, Bradford 74y   NG0749  
5267 4 96 765 1974 10 11 Ruth Mulholland Beechwood, Wyke 79y   NG1128  
5268 4 96 766 1974 10 16 Emily Walker 17 Corrance Road, Wyke 53y   NG1167  
5269 4 96 767 1974 11 26 James Leslie Wood 304 Whitehall Road, Wyke 58y   NG1167A  
5270 4 96 768 1974 12 20 Dick Kellett 25 High Fearnley Road, Wyke   Cremated Remains NG0866A  
5271 4 97 769 1975 01 16 Anne Hutchinson 14 Angus Ave, Wyke 46y   NG0999A  
5272 4 97 770 1975 04 21 Sarah Elizabeth Robertshaw 16 Tor Avenue, Wyke 87y 566 NG0566  
5273 4 97 771 1975 07 31 Hannah Gunn 190 Woodside Rd, Wyke 66y 1171 NG1171  
5274 4 97 772 1975 10 06 Ida Hannah Woodhead 2 Claremont, Wyke 77y 1130 NG1130  
5275 4 97 773 1975 10 18 William Hogg Wimpenny 3 Waterloo Fold, Wyke 72y 1131 NG1131  
5276 4 97 774 1975 11 21 James Willy Tordoff 55 St Mary's Crescent, Wyke 67y 781 NG0781  
5277 4 97 775 1975 12 16 Ethel Jones 1 Soaper Lane, Bradford 6 91y 169 NG0169  
5278 4 97 776 1975 12 27 Percy Hellawell 10 Griffe Drive, Wyke 79y 914 NG0914  
5279 4 98 777 1976 02 18 Thomas Frederick Mustchin 4 Waterloo Fold, Wyke 56y 1132 NG1132  
5280 4 98 778 1976 03 05 Harriet Pyrah Belle Dean Hospital, Kirklees Road, Allerton formerly of Wyke 89y 795 NG0795  
5281 4 98 779 1976 07 02 Annie Newby 6 St Mary's Close, Wyke 79y 829A NG0829A  
5282 4 98 780 1976 07 20 Emily Bateman 12 Worthinghead Rd, Wyke 67y 1110 NG1110  
5283 4 98 781 1976 09 16 Walter Shaw 16 Tor Avenue, Wyke 62y 1133 NG1133  
5284 4 98 782 1977 10 19 Clement Dyson 3 Hanson Fold,Wyke 84y 1100 NG1100  
5285 4 98 783 1977 11 28 Ruth Hannah Schofield 13 Poplar View, Lightcliffe 77y 571 NG0571  
5286 4 98 784 1978 03 09 Edith Stillings Beechwood, Huddersfield Rd, Wyke 93y 415 NG0415  
5287 4 99 785 1978 08 15 Jack Harker 217 Wyke Lane, Wyke 58y   NG1172  
5288 4 99 786 1978 09 25 Axey Wright 5 Farrar Buildings, Wyke 93y   B45  
5289 4 99 787 1978 10 19 Edith Eastwood 235 Wyke Lane, Wyke 92y   NG1095  
5290 4 99 788 1979 11 06 Mary Farrar Cowclose Farm, Wyke 87y   NG007B  
5291 4 99 789 1980 03 10 Phyllis Healey Birchlands, Rooley Lane 71y   NG0928  
5292 4 99 790 1980 03 26 Hannah Walker 17 Corrance Road, Wyke 66y   NG1167  
5293 4 99 791 1980 04 15 Clara Sharp 29 Westcroft, Wyke 87y   NG0317 27 Westcroft, Wyke
5294 4 99 792 1980 10 10 Walter Wilkinson 5 Temperance Field 64y      
5295 4 100 793 1981 02 27 Florence May Bateman 12 Worthinghead Rd 77y 1110 NG1110  
5296 4 100 794 1981 02 13 Eileen Winifred Holt 19 Croft House Close, Bradford 65y 1120 NG1120 RC
5297 4 100 795 1981 03 24 Thomas Heston Wibsey 85y 75A NG0073  
5298 4 100 796 1981 12 17 Eva Yates Hove Edge 73y 48 NG0048 53 Upper Green Lane, Hove Edge
5299 4 100 797 1982 01 00 Olive Guise 32 Bull Royd Drive, Bradford 78y Cremated Remains 815 NG0815  
5300 4 100 798 1982 01 30 Mildred Woodhead Canterbury, Kent formerly of Wyke 84y Cremated Remains 573 NG0573  
5301 4 100 799 1982 04 29 Nikki Hill 2 Dawson Place, Tong St 2m 866A NG0866A  
5302 4 100 800 1982 05 18 Evelyn Harker 217 Wyke Lane 61y 1172 NG1172  

 

HOME